Location: Bothwell
(42.3833°S, 147.0000°E)
Time: 04:30:23
(UTC+11:00)

DOVE 4 - Pass Details

Date: 04 October 2022
Orbit: 587 x 795 km, 97.8° (Epoch: 30 November)

Event Time Altitude Azimuth Distance (km) Brightness Sun altitude
Exits shadow 23:24:41 21° 178° (S) 1,732 ? -38.3°
Drops below altitude 10° 23:26:29 10° 184° (S) 2,402 ? -38.5°
Sets 23:28:53 0° 188° (S) 3,336 ? -38.7°
